W6MAF Weather Reports


Display with metric or nautical units.
time (UTC)temp
F
wind
direction
speed
MPH
gust
MPH
rain 1hr
in
rain 24hr
in
rain mn
in
humidity
%
barometer
mb
20260904090655 58 200 14.0 11.0 0.00 0.00 0.00 45
20260904090157 58 215 12.0 15.0 0.00 0.00 0.00 45
20260904085656 57 205 11.0 13.0 0.00 0.00 0.00 45
20260904085159 58 217 10.0 13.0 0.00 0.00 0.00 45
20260904084701 58 190 12.0 10.0 0.00 0.00 0.00 45
20260904084203 58 214 11.0 11.0 0.00 0.00 0.00 45
20260904083705 58 221 14.0 9.0 0.00 0.00 0.00 45
20260904083208 58 221 14.0 13.0 0.00 0.00 0.00 44
20260904082753 58 228 13.0 19.0 0.00 0.00 0.00 44
20260904082707 58 228 13.0 19.0 0.00 0.00 0.00 44
20260904082209 58 224 13.0 9.0 0.00 0.00 0.00 44
20260904081711 59 197 14.0 17.0 0.00 0.00 0.00 44
20260904081214 59 211 15.0 18.0 0.00 0.00 0.00 44
20260904080716 58 222 15.0 17.0 0.00 0.00 0.00 44
20260904080218 59 210 14.0 16.0 0.00 0.00 0.00 44
20260904075717 59 212 13.0 15.0 0.00 0.00 0.00 44
20260904075220 59 208 14.0 8.0 0.00 0.00 0.00 44
20260904074722 59 232 10.0 15.0 0.00 0.00 0.00 43
20260904074224 59 222 14.0 8.0 0.00 0.00 0.00 43
20260904073727 60 232 12.0 9.0 0.00 0.00 0.00 42
20260904073229 60 224 12.0 8.0 0.00 0.00 0.00 41
20260904072729 60 193 15.0 11.0 0.00 0.00 0.00 40
20260904072231 60 211 14.0 18.0 0.00 0.00 0.00 40
20260904071732 60 217 17.0 12.0 0.00 0.00 0.00 40
20260904071235 60 225 15.0 18.0 0.00 0.00 0.00 39
20260904070737 59 226 17.0 19.0 0.00 0.00 0.00 39
20260904070239 59 218 18.0 18.0 0.00 0.00 0.00 39
20260904065737 59 219 12.0 16.0 0.00 0.00 0.00 40
20260904065240 59 176 11.0 9.0 0.00 0.00 0.00 40
20260904064742 59 188 14.0 12.0 0.00 0.00 0.00 39
20260904064244 60 200 13.0 17.0 0.00 0.00 0.00 40
20260904063747 60 207 12.0 14.0 0.00 0.00 0.00 39
20260904063249 60 205 10.0 15.0 0.00 0.00 0.00 39
20260904062748 60 198 7.0 9.0 0.00 0.00 0.00 38
20260904062250 60 219 11.0 11.0 0.00 0.00 0.00 38
20260904061753 61 208 11.0 11.0 0.00 0.00 0.00 38
20260904061255 61 218 11.0 9.0 0.00 0.00 0.00 37
20260904060757 61 214 15.0 13.0 0.00 0.00 0.00 37
20260904060259 61 215 13.0 14.0 0.00 0.00 0.00 38
20260904055758 61 205 12.0 13.0 0.00 0.00 0.00 38
20260904055301 61 198 14.0 18.0 0.00 0.00 0.00 38
20260904054803 61 219 13.0 14.0 0.00 0.00 0.00 37
20260904054305 61 170 12.0 16.0 0.00 0.00 0.00 37
20260904053808 61 183 15.0 13.0 0.00 0.00 0.00 36
20260904053310 61 205 15.0 13.0 0.00 0.00 0.00 36
20260904052809 61 180 14.0 12.0 0.00 0.00 0.00 36
20260904052311 61 212 16.0 10.0 0.00 0.00 0.00 36
20260904051813 61 187 12.0 9.0 0.00 0.00 0.00 37
20260904051316 62 197 12.0 9.0 0.00 0.00 0.00 37
20260904050818 62 183 11.0 15.0 0.00 0.00 0.00 36
20260904050320 62 186 11.0 9.0 0.00 0.00 0.00 36
20260904045819 62 201 14.0 16.0 0.00 0.00 0.00 36
20260904045322 62 214 12.0 10.0 0.00 0.00 0.00 36
20260904044824 62 215 15.0 16.0 0.00 0.00 0.00 36
20260904044326 62 188 10.0 12.0 0.00 0.00 0.00 36
20260904043829 62 203 13.0 11.0 0.00 0.00 0.00 35
20260904043331 63 203 12.0 17.0 0.00 0.00 0.00 35
20260904042830 63 221 13.0 13.0 0.00 0.00 0.00 35
20260904042332 63 217 12.0 14.0 0.00 0.00 0.00 34
20260904041834 64 210 11.0 13.0 0.00 0.00 0.00 33
20260904041337 64 215 12.0 13.0 0.00 0.00 0.00 32
20260904040839 64 181 16.0 11.0 0.00 0.00 0.00 31
20260904040341 64 201 15.0 16.0 0.00 0.00 0.00 31
20260904035840 65 179 14.0 12.0 0.00 0.00 0.00 31
20260904035343 65 198 12.0 11.0 0.00 0.00 0.00 31
20260904034845 65 193 13.0 12.0 0.00 0.00 0.00 31
20260904034347 65 215 14.0 15.0 0.00 0.00 0.00 30
20260904033850 65 214 12.0 10.0 0.00 0.00 0.00 30
20260904033352 65 191 11.0 12.0 0.00 0.00 0.00 31
20260904032851 65 228 14.0 19.0 0.00 0.00 0.00 32
20260904032353 66 215 11.0 12.0 0.00 0.00 0.00 33
20260904031856 66 201 12.0 11.0 0.00 0.00 0.00 32
20260904031358 66 226 9.0 9.0 0.00 0.00 0.00 32
20260904030900 66 218 9.0 9.0 0.00 0.00 0.00 31
20260904030402 66 207 9.0 13.0 0.00 0.00 0.00 30
20260904025901 66 207 10.0 12.0 0.00 0.00 0.00 30
20260904025403 67 203 12.0 10.0 0.00 0.00 0.00 29
20260904024906 67 219 10.0 9.0 0.00 0.00 0.00 28
20260904024408 67 217 12.0 11.0 0.00 0.00 0.00 27
20260904023910 67 201 12.0 10.0 0.00 0.00 0.00 26
20260904023413 68 226 11.0 16.0 0.00 0.00 0.00 26
20260904022912 68 221 11.0 6.0 0.00 0.00 0.00 26
20260904022414 68 219 10.0 12.0 0.00 0.00 0.00 25
20260904021916 68 195 12.0 9.0 0.00 0.00 0.00 25
20260904021418 69 211 10.0 8.0 0.00 0.00 0.00 26
20260904020921 69 224 12.0 11.0 0.00 0.00 0.00 26
20260904020423 70 231 9.0 13.0 0.00 0.00 0.00 25
20260904015922 70 225 6.0 6.0 0.00 0.00 0.00 24
20260904015424 71 222 9.0 5.0 0.00 0.00 0.00 23
20260904014926 71 229 11.0 14.0 0.00 0.00 0.00 22
20260904014429 71 219 10.0 13.0 0.00 0.00 0.00 21
20260904013931 72 200 10.0 4.0 0.00 0.00 0.00 21
20260904012932 73 217 8.0 6.0 0.00 0.00 0.00 18
20260904012435 73 198 7.0 10.0 0.00 0.00 0.00 17
20260904011937 74 214 12.0 10.0 0.00 0.00 0.00 15
20260904011439 74 231 9.0 7.0 0.00 0.00 0.00 14
20260904010941 74 211 0.0 0.0 0.00 0.00 0.00 12
20260904010444 74 222 8.0 11.0 0.00 0.00 0.00 11
20260904005943 74 201 14.0 13.0 0.00 0.00 0.00 9
20260904005445 74 186 0.0 0.0 0.00 0.00 0.00 9
20260904004947 74 186 0.0 0.0 0.00 0.00 0.00 8
20260904004449 74 200 9.0 8.0 0.00 0.00 0.00 8
20260904003952 74 198 13.0 12.0 0.00 0.00 0.00 9
20260904003454 74 198 12.0 14.0 0.00 0.00 0.00 9
20260904002953 74 174 10.0 0.0 0.00 0.00 0.00 11
20260904002456 75 201 13.0 17.0 0.00 0.00 0.00 11
20260904001957 75 186 9.0 7.0 0.00 0.00 0.00 12
20260904001500 75 187 8.0 0.0 0.00 0.00 0.00 13
20260904001002 74 219 7.0 10.0 0.00 0.00 0.00 13
20260904000504 75 180 16.0 15.0 0.00 0.00 0.00 13
20260904000004 75 210 18.0 10.0 0.00 0.00 0.00 12
20260903235008 75 219 16.0 11.0 0.00 0.00 0.00 11
20260903234510 76 212 14.0 18.0 0.00 0.00 0.00 11
20260903234012 76 195 14.0 16.0 0.00 0.00 0.00 10
20260903233515 76 205 15.0 22.0 0.00 0.00 0.00 10
20260903233014 76 212 10.0 10.0 0.00 0.00 0.00 9
20260903232516 76 179 15.0 21.0 0.00 0.00 0.00 11
20260903232018 76 176 14.0 12.0 0.00 0.00 0.00 10
20260903231520 76 200 9.0 12.0 0.00 0.00 0.00 10
20260903231023 77 205 12.0 13.0 0.00 0.00 0.00 8
20260903230525 77 208 12.0 12.0 0.00 0.00 0.00 8
20260903230025 77 208 7.0 18.0 0.00 0.00 0.00 7
20260903225526 77 190 12.0 13.0 0.00 0.00 0.00 7
20260903225028 77 190 11.0 7.0 0.00 0.00 0.00 6
20260903224531 77 187 8.0 5.0 0.00 0.00 0.00 7
20260903224033 77 197 17.0 13.0 0.00 0.00 0.00 6
20260903223535 77 231 11.0 10.0 0.00 0.00 0.00 6
20260903223034 78 198 13.0 15.0 0.00 0.00 0.00 7
20260903222536 78 188 14.0 10.0 0.00 0.00 0.00 7
20260903222039 78 218 12.0 9.0 0.00 0.00 0.00 6
20260903221541 78 229 12.0 10.0 0.00 0.00 0.00 6
20260903221043 77 208 9.0 8.0 0.00 0.00 0.00 9
20260903220546 77 200 8.0 19.0 0.00 0.00 0.00 9
20260903220045 77 204 15.0 9.0 0.00 0.00 0.00 9
20260903215547 77 179 12.0 12.0 0.00 0.00 0.00 9
20260903215049 77 195 10.0 4.0 0.00 0.00 0.00 10
20260903214551 77 186 9.0 0.0 0.00 0.00 0.00 10
20260903214054 77 215 15.0 15.0 0.00 0.00 0.00 10
20260903213556 77 214 12.0 9.0 0.00 0.00 0.00 9
20260903213055 77 224 1.0 5.0 0.00 0.00 0.00 9
20260903212557 77 219 12.0 11.0 0.00 0.00 0.00 9
20260903212131 77 190 11.0 11.0 0.00 0.00 0.00 9
20260903212059 77 190 11.0 11.0 0.00 0.00 0.00 9
20260903211602 77 204 10.0 8.0 0.00 0.00 0.00 10
20260903211104 77 181 14.0 10.0 0.00 0.00 0.00 10
20260903210606 77 229 12.0 5.0 0.00 0.00 0.00 10
20260903210105 77 201 12.0 12.0 0.00 0.00 0.00 10
20260903205608 77 217 11.0 7.0 0.00 0.00 0.00 11
20260903205110 76 221 14.0 12.0 0.00 0.00 0.00 11
20260903204612 76 232 14.0 15.0 0.00 0.00 0.00 12
20260903204114 76 197 10.0 12.0 0.00 0.00 0.00 12
20260903203617 76 210 8.0 10.0 0.00 0.00 0.00 12
20260903203116 76 207 11.0 18.0 0.00 0.00 0.00 11
20260903202618 76 204 14.0 17.0 0.00 0.00 0.00 11
20260903202120 76 210 12.0 14.0 0.00 0.00 0.00 11
20260903201623 76 221 11.0 14.0 0.00 0.00 0.00 12
20260903201125 76 226 18.0 7.0 0.00 0.00 0.00 12
20260903200628 76 257 17.0 5.0 0.00 0.00 0.00 12
20260903200126 76 236 16.0 10.0 0.00 0.00 0.00 12
20260903195628 76 243 13.0 15.0 0.00 0.00 0.00 12
20260903195131 75 273 13.0 4.0 0.00 0.00 0.00 12
20260903194633 75 215 13.0 17.0 0.00 0.00 0.00 13
20260903194135 75 224 16.0 22.0 0.00 0.00 0.00 13
20260903193638 75 205 14.0 11.0 0.00 0.00 0.00 13
20260903193137 75 232 13.0 18.0 0.00 0.00 0.00 13
20260903192639 75 221 16.0 16.0 0.00 0.00 0.00 13
20260903192141 75 203 10.0 13.0 0.00 0.00 0.00 13
20260903191643 74 246 15.0 0.0 0.00 0.00 0.00 13
20260903191146 74 235 17.0 16.0 0.00 0.00 0.00 13
20260903190648 74 210 10.0 4.0 0.00 0.00 0.00 14
20260903190147 73 215 15.0 14.0 0.00 0.00 0.00 14
20260903185650 73 239 17.0 9.0 0.00 0.00 0.00 14
20260903185152 73 217 11.0 17.0 0.00 0.00 0.00 15
20260903184654 73 219 18.0 18.0 0.00 0.00 0.00 14
20260903184156 73 226 13.0 17.0 0.00 0.00 0.00 14
20260903183659 72 191 12.0 6.0 0.00 0.00 0.00 15
20260903183158 72 201 15.0 16.0 0.00 0.00 0.00 15
20260903182700 72 208 16.0 12.0 0.00 0.00 0.00 15
20260903182202 72 194 10.0 0.0 0.00 0.00 0.00 15
20260903181241 72 218 15.0 6.0 0.00 0.00 0.00 15
20260903181207 72 218 15.0 6.0 0.00 0.00 0.00 15
20260903180709 71 217 14.0 18.0 0.00 0.00 0.00 15
20260903180208 71 215 12.0 11.0 0.00 0.00 0.00 16
20260903175710 70 210 15.0 8.0 0.00 0.00 0.00 15
20260903175213 70 219 11.0 13.0 0.00 0.00 0.00 14
20260903174715 70 231 12.0 13.0 0.00 0.00 0.00 14
20260903174217 70 243 8.0 11.0 0.00 0.00 0.00 14
20260903173219 69 208 14.0 11.0 0.00 0.00 0.00 14
20260903172721 69 212 13.0 19.0 0.00 0.00 0.00 15
20260903172223 69 226 13.0 3.0 0.00 0.00 0.00 14
20260903171726 69 238 8.0 14.0 0.00 0.00 0.00 15
20260903171228 68 217 7.0 13.0 0.00 0.00 0.00 16
20260903170731 68 181 3.0 16.0 0.00 0.00 0.00 17
20260903170229 68 204 12.0 18.0 0.00 0.00 0.00 18
20260903165731 67 214 12.0 11.0 0.00 0.00 0.00 20
20260903165234 67 215 10.0 16.0 0.00 0.00 0.00 21
20260903164737 67 211 16.0 16.0 0.00 0.00 0.00 23
20260903164238 66 226 12.0 17.0 0.00 0.00 0.00 25
20260903163741 66 207 13.0 12.0 0.00 0.00 0.00 26
20260903163240 65 233 13.0 14.0 0.00 0.00 0.00 27
20260903162743 65 225 10.0 14.0 0.00 0.00 0.00 29
20260903162244 65 198 10.0 14.0 0.00 0.00 0.00 30
20260903161747 64 219 11.0 18.0 0.00 0.00 0.00 32
20260903161249 64 201 9.0 14.0 0.00 0.00 0.00 33
20260903160751 64 215 10.0 15.0 0.00 0.00 0.00 34
20260903160250 64 215 13.0 12.0 0.00 0.00 0.00 35
20260903155753 63 218 12.0 16.0 0.00 0.00 0.00 37
20260903155255 63 217 12.0 13.0 0.00 0.00 0.00 38
20260903154757 63 214 14.0 12.0 0.00 0.00 0.00 39
20260903153803 62 238 11.0 8.0 0.00 0.00 0.00 39
20260903153301 62 160 6.0 3.0 0.00 0.00 0.00 41
20260903152803 61 231 12.0 16.0 0.00 0.00 0.00 41
20260903152307 61 226 12.0 9.0 0.00 0.00 0.00 41
20260903151808 61 233 10.0 12.0 0.00 0.00 0.00 41
20260903151311 60 208 11.0 4.0 0.00 0.00 0.00 41
20260903150813 60 240 8.0 6.0 0.00 0.00 0.00 42
20260903150312 59 229 11.0 16.0 0.00 0.00 0.00 42
20260903145814 59 214 2.0 0.0 0.00 0.00 0.00 45
20260903145316 58 212 3.0 0.0 0.00 0.00 0.00 46
20260903144818 58 176 8.0 0.0 0.00 0.00 0.00 46
20260903144321 57 203 10.0 14.0 0.00 0.00 0.00 48
20260903143823 57 211 8.0 0.0 0.00 0.00 0.00 49
20260903143322 56 207 7.0 9.0 0.00 0.00 0.00 50
20260903142824 56 301 1.0 2.0 0.00 0.00 0.00 51
20260903141829 55 232 12.0 13.0 0.00 0.00 0.00 52
20260903141331 55 217 2.0 5.0 0.00 0.00 0.00 53
20260903140333 55 246 2.0 0.0 0.00 0.00 0.00 54
20260903135835 54 239 3.0 3.0 0.00 0.00 0.00 55
20260903135337 54 180 1.0 2.0 0.00 0.00 0.00 55
20260903134839 54 222 0.0 0.0 0.00 0.00 0.00 55
20260903134342 54 172 2.0 2.0 0.00 0.00 0.00 55
20260903133844 54 207 4.0 5.0 0.00 0.00 0.00 55
20260903133343 54 208 4.0 2.0 0.00 0.00 0.00 55
20260903132845 54 222 4.0 3.0 0.00 0.00 0.00 54
20260903132348 54 212 3.0 6.0 0.00 0.00 0.00 54
20260903131850 54 138 3.0 2.0 0.00 0.00 0.00 53
20260903131352 54 188 1.0 0.0 0.00 0.00 0.00 53
20260903130854 54 207 2.0 4.0 0.00 0.00 0.00 53
20260903130354 54 248 2.0 2.0 0.00 0.00 0.00 53
20260903125856 54 187 1.0 1.0 0.00 0.00 0.00 52
20260903125358 54 198 2.0 3.0 0.00 0.00 0.00 52
20260903124901 57 246 3.0 0.0 0.00 0.00 0.00 52
20260903124403 54 256 1.0 0.0 0.00 0.00 0.00 52
20260903123905 54 203 13.0 13.0 0.00 0.00 0.00 52
20260903123404 54 232 13.0 13.0 0.00 0.00 0.00 52
20260903122906 54 226 8.0 10.0 0.00 0.00 0.00 52
20260903122409 54 235 13.0 12.0 0.00 0.00 0.00 51
20260903121911 54 218 14.0 13.0 0.00 0.00 0.00 51
20260903121413 54 201 11.0 4.0 0.00 0.00 0.00 51
20260903120915 54 232 10.0 14.0 0.00 0.00 0.00 51
20260903120415 55 255 12.0 9.0 0.00 0.00 0.00 51
20260903115917 55 229 11.0 15.0 0.00 0.00 0.00 50
20260903115419 55 191 13.0 10.0 0.00 0.00 0.00 51
20260903114921 55 217 14.0 12.0 0.00 0.00 0.00 51
20260903114424 55 205 12.0 13.0 0.00 0.00 0.00 50
20260903113926 55 219 14.0 14.0 0.00 0.00 0.00 50
20260903113425 55 190 13.0 10.0 0.00 0.00 0.00 50
20260903112927 56 224 11.0 12.0 0.00 0.00 0.00 50
20260903112430 56 229 13.0 15.0 0.00 0.00 0.00 50
20260903111932 55 207 11.0 17.0 0.00 0.00 0.00 50
20260903111435 56 208 12.0 13.0 0.00 0.00 0.00 49
20260903110936 56 211 13.0 13.0 0.00 0.00 0.00 50
20260903105938 56 212 11.0 15.0 0.00 0.00 0.00 49
20260903105440 56 232 9.0 9.0 0.00 0.00 0.00 49
20260903104942 56 215 13.0 10.0 0.00 0.00 0.00 48
20260903104445 56 224 10.0 13.0 0.00 0.00 0.00 48
20260903103947 56 231 10.0 4.0 0.00 0.00 0.00 47
20260903103446 56 205 5.0 6.0 0.00 0.00 0.00 47
20260903102948 56 233 8.0 10.0 0.00 0.00 0.00 46
20260903102524 56 233 11.0 6.0 0.00 0.00 0.00 46
20260903102451 56 233 11.0 6.0 0.00 0.00 0.00 46
20260903101953 56 218 8.0 11.0 0.00 0.00 0.00 45
20260903101455 56 210 5.0 12.0 0.00 0.00 0.00 44
20260903100957 56 210 8.0 10.0 0.00 0.00 0.00 43
20260903100456 56 212 7.0 9.0 0.00 0.00 0.00 42
20260903095959 57 215 5.0 8.0 0.00 0.00 0.00 42
20260903095501 57 214 9.0 11.0 0.00 0.00 0.00 41
20260903095004 57 219 9.0 7.0 0.00 0.00 0.00 41
20260903094506 57 233 9.0 6.0 0.00 0.00 0.00 40
20260903094008 57 249 10.0 8.0 0.00 0.00 0.00 40
20260903093507 57 214 8.0 3.0 0.00 0.00 0.00 40
20260903093009 57 229 9.0 13.0 0.00 0.00 0.00 40
20260903092511 57 214 8.0 7.0 0.00 0.00 0.00 39
20260903092046 58 218 9.0 12.0 0.00 0.00 0.00 39
20260903092014 58 218 9.0 12.0 0.00 0.00 0.00 39
20260903091516 58 238 9.0 8.0 0.00 0.00 0.00 39
20260903091019 58 249 10.0 8.0 0.00 0.00 0.00 38